GFSNIL_sfc_rhum_000.txt.gz
RH
72 58 56 58 46 44 41 40 49 66 58 56 54 55 56 47 46 51 50 58 59 44
71 70 56 59 60 49 55 40 53 59 58 52 55 54 57 45 52 51 53 51 55 50
64 67 65 62 68 61 56 59 56 57 52 53 54 55 61 50 52 56 42 38 50 55
57 58 64 63 74 69 68 64 61 61 55 54 55 56 61 60 51 52 55 52 55 60
57 58 61 70 73 75 74 66 70 61 65 59 53 55 59 57 47 50 52 52 57 56
56 59 64 83 86 77 68 78 74 74 76 74 67 57 58 59 56 52 51 52 55 54
57 60 68 76 87 74 69 72 85 81 80 68 61 58 57 55 56 53 50 54 56 58
60 70 75 76 75 74 74 77 74 71 67 66 64 57 62 56 53 56 57 56 55 56
75 76 85 80 76 75 75 68 68 66 68 66 58 65 75 64 53 56 60 60 62 67
79 80 85 78 75 73 70 73 63 62 65 67 66 80 81 83 53 54 65 68 73 72
82 80 84 81 77 74 63 67 65 68 68 65 58 85 92 89 64 71 66 67 69 82
78 80 81 80 80 71 67 65 64 66 68 69 66 94 91 91 56 62 69 85 78 87
76 79 81 78 79 78 73 69 61 66 67 68 72 93 92 86 47 70 80 93 92 92
76 78 82 82 81 75 74 78 72 70 71 78 82 70 98 98 70 60 73 81 86 65

GFSNIL_sfc_rhum_003.txt.gz
RH
72 52 49 57 45 42 40 40 53 58 59 60 52 54 58 48 48 56 51 58 65 45
71 69 53 61 62 45 56 40 46 54 62 60 54 56 60 49 58 54 54 57 63 53
65 68 65 62 64 60 56 56 58 58 59 58 58 61 67 56 60 60 48 41 58 60
59 60 64 62 62 64 61 66 64 68 63 59 58 58 64 62 54 64 64 62 58 61
60 60 61 65 64 70 71 68 68 68 67 57 59 70 64 58 51 54 54 54 62 59
57 60 63 67 67 75 73 73 62 66 68 63 61 61 61 60 58 54 50 50 57 57
59 59 59 68 73 73 76 74 67 66 65 63 59 58 56 57 58 58 53 54 56 57
62 62 64 71 79 78 75 72 66 65 62 58 51 46 58 56 57 62 59 55 52 58
66 70 71 80 83 80 74 68 63 63 60 60 43 65 76 65 55 62 60 70 61 77
70 77 85 79 83 82 78 70 66 64 64 61 59 79 81 80 55 66 62 72 71 62
76 82 87 84 84 81 74 72 66 66 63 61 57 86 86 87 73 70 60 60 62 66
76 82 85 83 79 76 76 72 70 69 76 68 67 87 91 84 72 78 69 62 61 72
77 82 80 80 82 80 75 70 58 61 75 71 71 93 93 86 75 71 49 74 74 91
74 81 77 80 83 83 80 81 82 77 68 73 70 74 95 95 67 48 59 53 79 59

GFSNIL_sfc_rhum_006.txt.gz
RH
78 68 68 70 62 64 62 62 73 74 78 78 76 75 80 77 76 78 77 73 79 78
80 76 69 72 73 65 71 62 72 71 77 75 75 77 82 74 78 74 79 78 79 78
76 76 72 72 76 70 68 69 71 73 72 75 76 76 81 76 76 81 76 73 79 81
72 73 74 73 74 72 72 72 75 74 75 77 74 76 81 79 75 78 80 77 78 75
73 74 73 74 73 73 77 74 74 75 77 76 71 76 78 75 65 76 77 77 79 76
69 72 74 76 72 75 75 76 74 75 79 76 71 76 75 75 74 73 72 73 77 76
66 68 68 73 76 72 75 77 78 77 77 74 70 72 71 73 74 74 70 73 74 74
67 68 71 73 76 75 77 79 80 79 78 75 66 59 72 72 73 76 74 74 73 72
67 72 73 75 78 80 82 84 83 78 77 79 58 67 75 74 70 76 77 81 77 78
68 74 75 75 78 83 85 85 84 79 77 76 72 80 80 80 69 74 78 82 83 74
69 75 76 78 81 86 86 86 83 82 79 73 72 83 86 82 78 79 78 80 83 85
71 77 80 83 88 86 88 86 85 82 77 78 76 86 92 89 83 80 81 79 78 82
78 83 88 87 89 87 84 84 77 76 80 84 80 91 91 87 68 76 80 88 84 94
83 87 88 89 86 85 85 86 85 83 81 81 82 92 92 91 76 72 76 74 86 78

GFSNIL_sfc_rhum_009.txt.gz
RH
86 66 71 83 83 74 74 75 81 78 81 83 76 88 91 89 88 85 84 80 81 83
78 75 76 86 86 80 67 73 76 85 84 82 82 87 89 90 85 88 87 78 82 82
79 71 74 87 82 81 76 79 73 85 85 88 79 85 89 86 89 88 88 85 87 83
80 77 72 86 80 79 78 82 78 77 88 82 81 83 89 85 82 90 82 83 82 87
79 79 78 72 80 83 74 76 76 80 76 83 79 83 85 82 77 84 90 83 84 81
76 80 80 75 81 84 70 80 78 73 79 81 81 81 83 77 83 88 85 87 85 83
74 75 76 76 74 85 81 84 77 76 78 82 79 77 81 83 88 90 86 83 77 76
71 72 75 77 80 75 87 87 83 88 88 87 78 72 85 81 91 90 86 81 77 77
70 72 76 79 82 86 80 91 92 89 87 93 72 80 84 82 83 89 90 82 82 70
66 74 75 79 82 90 85 94 96 91 86 93 89 83 84 84 81 83 83 82 89 80
69 70 77 79 83 88 88 94 94 87 90 92 91 86 86 82 84 86 80 87 89 90
66 72 77 79 85 93 94 93 88 93 93 93 92 92 90 90 90 88 86 87 90 88
62 70 83 83 95 97 97 97 96 95 94 90 87 91 90 88 81 81 88 92 82 88
80 85 94 97 98 97 96 96 96 94 88 83 80 91 89 89 76 75 88 96 96 93

GFSNIL_sfc_rhum_012.txt.gz
RH
77 74 78 86 93 83 78 75 80 85 87 86 85 85 88 90 91 91 88 90 91 89
80 76 74 92 84 80 76 73 86 84 86 81 83 85 94 92 90 93 90 88 85 89
75 79 77 88 87 84 80 79 82 86 84 81 79 85 93 93 89 94 96 89 87 91
77 74 78 85 84 85 77 76 80 83 84 80 82 83 86 92 91 89 92 92 89 88
79 79 76 77 78 85 80 76 77 80 84 84 80 78 85 86 79 92 90 87 89 85
80 83 81 74 74 84 80 80 78 79 84 85 84 80 81 83 85 83 90 87 87 85
81 82 82 77 76 75 82 85 81 80 79 84 83 85 83 86 82 85 86 89 86 86
78 79 82 82 80 77 86 81 83 80 82 81 86 83 86 84 87 82 92 93 89 88
79 81 83 85 86 82 90 94 88 84 83 93 88 84 89 87 91 88 83 88 93 87
78 82 84 84 87 91 85 97 96 92 93 94 91 92 93 93 84 94 86 90 93 87
79 81 82 86 87 93 89 96 96 96 92 95 96 97 94 93 93 91 90 91 93 92
76 78 84 86 87 90 93 94 97 97 96 97 98 95 95 96 93 88 93 94 94 94
72 75 81 83 85 93 95 97 98 98 96 94 96 94 91 92 83 89 93 93 89 95
69 73 82 92 94 97 98 98 98 98 98 94 92 95 92 92 77 80 86 85 95 87

GFSNIL_sfc_rhum_015.txt.gz
RH
76 77 76 83 80 83 90 88 89 89 90 95 85 88 91 93 92 94 94 86 90 94
79 77 79 88 81 81 85 84 90 89 92 92 87 86 91 92 94 95 94 94 94 92
79 78 78 85 86 83 85 86 90 90 90 90 87 87 90 92 92 95 96 93 93 94
76 78 79 82 85 85 86 85 85 87 89 89 86 87 88 91 92 93 95 94 92 89
72 76 82 80 82 84 85 86 85 86 88 89 85 84 86 88 84 88 92 95 94 92
75 78 80 80 78 87 82 85 82 85 89 90 88 83 82 82 83 85 84 88 93 92
76 80 77 74 77 78 85 86 82 84 84 89 89 88 88 90 90 82 88 90 83 89
74 77 81 80 78 78 85 84 82 84 84 87 88 90 92 91 92 91 91 91 92 91
76 80 84 84 84 83 86 87 88 86 85 91 88 89 91 90 95 94 94 95 97 92
76 83 86 86 87 88 88 92 94 88 91 94 91 91 92 94 97 96 95 90 95 91
79 81 85 88 89 90 88 95 96 91 90 93 94 96 95 96 96 96 94 92 92 94
78 81 85 89 90 88 89 95 97 96 95 94 95 99 97 96 95 97 96 94 96 94
76 79 84 86 87 90 91 95 97 97 95 95 96 100 100 99 96 98 98 97 97 95
74 78 80 89 92 94 95 95 96 97 97 96 97 99 99 98 97 94 98 98 98 95

GFSNIL_sfc_rhum_021.txt.gz
RH
80 66 66 70 59 59 57 59 66 73 72 75 75 74 76 69 65 70 66 72 69 54
79 77 69 73 73 61 69 56 66 70 73 74 75 76 78 64 74 71 70 68 72 60
74 76 73 73 76 72 67 69 66 70 71 73 76 77 80 70 74 75 64 58 72 71
71 72 74 72 74 75 72 73 72 74 73 73 75 78 80 76 72 75 73 70 72 74
72 72 71 73 73 75 77 74 76 74 74 74 74 77 79 76 70 75 74 72 72 71
70 72 74 75 72 75 77 77 70 74 77 74 74 77 78 76 75 74 72 70 72 74
71 70 70 74 75 74 77 78 77 77 75 73 72 74 73 75 76 74 72 72 69 69
71 71 73 76 77 76 77 76 76 77 76 74 69 63 74 74 75 77 74 74 72 70
72 76 77 78 80 80 79 79 79 77 77 77 64 77 88 78 74 77 78 77 77 73
73 77 79 78 80 81 81 79 81 78 77 78 77 88 91 91 69 74 76 77 78 74
73 76 78 79 81 82 78 81 80 80 80 79 75 91 93 92 77 76 76 76 76 78
72 75 76 80 81 78 78 79 79 77 81 83 79 94 94 93 76 75 81 78 76 77
72 74 76 78 81 79 78 76 69 76 78 83 79 97 97 91 65 77 80 85 82 94
73 77 77 81 80 80 80 78 80 79 80 81 82 80 99 99 74 68 84 80 87 90

GFSNIL_sfc_rhum_024.txt.gz
RH
75 56 56 59 48 48 42 43 51 58 61 64 62 65 67 61 60 63 62 65 58 35
73 71 57 64 62 48 57 42 51 55 63 61 62 65 69 58 66 62 66 62 62 48
65 70 68 65 67 64 55 59 52 59 60 61 63 65 71 61 65 70 57 50 59 60
60 61 66 64 66 68 62 63 64 63 62 60 62 65 71 69 60 71 70 61 59 65
63 63 60 67 66 68 69 65 66 64 65 62 60 64 69 70 58 66 69 66 66 63
58 61 63 67 66 68 70 70 59 64 69 66 62 64 66 68 66 63 66 64 65 64
60 61 60 66 70 67 70 71 69 67 68 65 62 61 61 65 66 64 62 64 62 62
61 63 64 68 70 69 70 70 70 69 67 66 57 49 64 64 64 67 66 65 64 63
63 68 69 71 73 74 72 72 72 70 69 68 51 63 76 69 63 67 70 69 67 65
65 70 72 70 74 76 76 73 76 73 70 72 68 75 80 83 58 64 67 71 68 63
68 69 70 73 75 77 73 74 74 74 74 73 68 83 84 83 69 65 65 66 67 69
63 66 69 74 76 74 73 73 72 72 76 77 73 89 88 87 66 64 69 65 66 68
64 67 69 72 77 74 73 71 61 67 70 77 74 90 93 86 54 62 55 69 74 88
63 69 70 74 74 74 73 67 73 70 70 73 75 74 96 95 66 47 52 46 55 63

GFSNIL_sfc_rhum_027.txt.gz
RH
73 53 52 56 42 42 37 38 51 64 62 63 64 64 66 58 58 64 61 64 66 36
74 70 55 62 61 46 54 37 49 56 63 62 63 65 69 56 66 64 66 65 66 52
68 72 66 63 66 61 54 58 52 56 58 63 64 66 72 61 64 71 58 53 67 66
64 64 68 64 64 66 62 62 63 64 63 64 65 67 72 70 62 70 71 66 64 69
62 63 63 68 64 66 68 64 65 65 67 66 64 66 70 70 57 64 69 68 68 63
60 60 62 66 66 67 69 68 60 66 69 69 65 66 68 70 69 63 64 66 69 66
58 59 58 62 68 66 69 70 69 66 68 68 66 64 64 67 70 68 63 66 66 67
57 60 62 66 66 68 68 69 69 70 67 68 63 53 66 64 67 71 69 66 66 66
57 64 67 69 71 72 71 71 72 70 69 69 55 64 74 68 64 69 72 71 69 66
58 64 69 69 71 74 75 72 75 72 70 72 69 75 76 79 59 64 68 72 70 64
57 62 68 72 74 75 72 75 74 73 74 73 68 81 81 79 64 65 66 68 70 71
56 62 67 73 75 72 73 74 72 71 75 77 74 88 88 84 62 63 68 66 67 68
59 64 67 71 76 73 72 72 62 68 71 77 75 90 92 84 54 62 58 68 71 82
61 67 69 73 73 75 74 69 74 71 70 73 75 75 96 93 67 52 54 54 57 56

GFSNIL_sfc_rhum_030.txt.gz
RH
80 66 63 70 55 59 56 56 71 72 74 76 77 77 82 79 78 82 82 82 82 78
78 76 65 71 70 62 68 53 66 71 72 75 75 78 81 74 81 80 82 83 85 81
75 76 72 68 75 68 66 67 68 73 73 74 76 78 82 78 79 82 79 74 83 83
73 73 72 70 71 73 69 75 69 76 75 76 75 77 81 80 76 80 82 79 82 83
73 74 73 72 69 72 75 70 74 73 74 75 74 76 79 79 70 77 80 80 80 80
70 72 73 75 70 71 73 75 67 72 75 75 74 76 77 78 78 73 77 78 80 78
69 69 69 72 75 71 73 74 73 72 75 74 73 74 73 76 78 78 73 76 78 78
67 68 70 72 73 74 73 72 74 74 72 73 70 64 74 74 76 79 78 74 75 76
65 69 72 73 75 76 76 76 75 76 75 74 64 73 80 75 72 77 80 80 76 75
64 68 72 72 75 76 78 77 79 77 76 77 74 81 83 82 68 73 76 79 78 73
64 68 71 74 76 77 76 78 78 78 79 78 74 84 86 83 71 72 74 75 77 78
64 66 70 74 77 76 76 78 77 77 80 81 79 90 90 87 71 69 74 73 74 76
61 67 68 72 77 77 77 77 72 76 77 81 80 92 94 89 68 70 66 72 76 85
66 67 70 75 77 78 79 77 80 78 77 78 79 80 98 96 77 69 67 64 65 66

GFSNIL_sfc_rhum_033.txt.gz
RH
92 75 66 88 70 84 69 74 73 80 83 85 88 91 90 92 93 94 92 90 87 80
74 90 66 62 86 66 78 63 74 73 87 82 82 87 94 86 91 95 94 92 93 90
71 74 77 69 68 83 65 73 70 75 76 82 84 83 87 94 94 94 94 89 94 94
75 70 78 76 70 79 80 78 83 80 76 79 79 88 86 89 92 95 94 91 92 92
76 77 71 77 81 62 86 76 87 84 81 82 79 80 88 88 79 87 94 94 92 90
75 77 78 72 70 89 66 81 69 89 82 81 80 83 80 84 85 85 89 88 89 87
76 75 75 75 73 68 78 71 82 71 81 80 78 77 79 80 82 83 79 91 84 82
72 72 73 75 77 77 68 72 72 79 73 79 75 73 78 77 80 82 83 79 87 84
71 72 74 75 76 78 80 71 75 77 71 76 73 80 86 78 77 79 81 85 80 79
67 73 74 74 76 76 77 77 75 72 79 73 74 86 88 88 72 75 78 79 80 78
67 72 73 74 75 74 73 75 77 78 74 78 74 89 90 89 74 73 74 76 77 78
66 68 71 74 74 72 72 73 74 76 78 79 77 94 93 91 78 73 73 73 75 77
61 66 69 70 70 70 71 72 74 74 76 82 78 94 96 94 76 76 74 71 70 87
74 72 72 71 69 72 73 74 77 79 76 78 81 82 100 97 84 79 76 73 70 67

GFSNIL_sfc_rhum_036.txt.gz
RH
74 72 69 80 78 74 80 77 76 85 87 87 91 93 94 95 96 96 95 92 89 86
82 73 73 75 82 80 84 77 79 79 85 85 87 90 95 93 95 96 96 94 94 90
77 84 73 72 84 91 81 78 77 80 83 86 84 87 95 95 94 96 98 94 95 96
70 70 87 77 72 72 85 79 77 80 82 85 86 84 89 93 96 93 93 95 95 94
75 73 74 87 78 73 75 86 77 88 82 83 84 84 85 89 85 96 96 95 95 89
78 80 76 75 81 79 74 78 90 89 86 84 82 84 86 84 85 92 92 92 92 89
79 80 78 75 72 80 84 74 82 90 89 86 84 80 80 83 87 86 88 90 89 87
76 77 80 83 77 75 76 86 72 75 84 87 83 79 82 80 82 88 88 88 91 87
79 79 80 82 85 80 79 75 81 81 82 84 79 84 88 81 80 81 84 87 86 84
76 82 82 80 83 85 86 82 76 74 80 78 78 89 90 90 76 79 81 82 82 83
77 79 80 82 81 82 80 86 86 79 75 81 76 90 92 91 80 77 78 80 80 80
71 77 79 81 82 78 80 79 80 81 82 78 77 94 94 94 85 82 80 78 79 80
67 71 76 77 77 77 75 77 76 76 78 85 82 94 96 95 79 82 80 77 76 89
59 67 68 71 73 73 77 75 77 79 77 80 86 85 99 98 87 83 82 80 77 73

GFSNIL_sfc_rhum_039.txt.gz
RH
70 73 74 78 84 81 79 82 81 91 92 93 93 95 96 97 96 96 96 94 89 88
73 74 75 84 76 77 82 79 85 86 89 95 95 95 96 98 96 97 97 96 95 91
73 75 74 79 85 83 83 84 84 87 86 91 94 95 96 96 95 96 98 97 96 96
75 77 73 79 83 84 87 89 90 89 86 87 90 94 96 95 95 96 96 96 97 95
74 80 80 79 79 79 90 88 83 89 88 86 88 91 93 94 90 95 95 94 96 96
71 75 80 86 82 82 82 86 87 84 87 89 89 91 90 88 89 94 91 91 95 90
76 78 75 74 81 86 84 80 85 83 83 86 86 87 88 88 88 89 90 92 92 92
80 78 80 78 79 82 90 81 77 80 84 88 85 81 86 87 89 88 89 92 91 89
78 81 84 83 84 82 83 89 85 78 80 87 82 87 90 84 84 87 89 90 92 89
79 82 84 85 88 88 84 80 87 88 79 79 78 88 92 92 79 83 84 84 83 86
81 84 83 85 89 91 88 86 84 83 83 84 80 92 93 93 86 81 81 81 80 80
78 83 85 88 86 86 87 90 88 84 83 81 80 94 94 95 87 86 84 81 81 82
77 79 82 84 86 82 83 84 83 86 87 88 80 93 96 96 82 87 86 83 81 93
73 75 76 80 80 83 84 83 86 86 83 85 90 84 97 98 83 81 83 84 83 80

GFSNIL_sfc_rhum_045.txt.gz
RH
77 59 58 66 54 55 51 52 63 70 69 72 73 72 75 68 66 71 68 73 73 56
76 73 63 70 69 56 66 52 63 66 69 70 71 73 75 65 73 72 73 72 74 67
71 74 70 71 73 69 63 67 61 68 68 69 71 73 77 68 72 77 67 63 73 74
66 67 69 68 69 71 67 70 69 71 70 70 70 72 77 76 70 76 76 74 74 76
68 68 66 70 68 71 73 68 70 69 71 70 69 70 75 72 65 73 73 72 76 74
64 66 69 71 69 72 73 71 64 68 71 71 69 71 73 73 71 70 70 69 72 72
66 66 65 71 73 71 74 73 71 71 69 67 67 67 68 70 72 72 69 70 69 70
68 68 70 74 75 73 73 72 72 72 70 68 63 55 68 69 71 73 72 71 71 70
72 74 75 77 78 78 76 75 74 72 71 70 57 70 83 75 66 72 75 74 72 72
74 77 78 76 79 81 80 76 78 74 72 74 72 84 87 90 62 64 68 73 72 67
76 76 78 79 80 82 77 79 79 76 77 76 72 90 91 91 73 71 71 70 70 73
74 76 77 80 81 78 76 77 76 74 78 80 78 94 94 92 72 70 76 71 71 71
74 77 78 80 82 80 77 75 66 71 74 80 78 95 95 92 63 69 64 73 77 90
75 78 79 82 80 79 78 75 79 75 74 76 78 79 100 98 73 62 61 61 60 60

GFSNIL_sfc_rhum_048.txt.gz
RH
69 48 47 55 43 41 37 37 46 58 58 60 59 60 63 64 57 58 57 63 61 39
68 65 52 59 55 43 52 38 46 50 58 56 58 61 64 52 61 59 62 60 63 56
59 64 61 57 61 58 48 54 48 54 53 54 58 60 66 55 60 64 54 49 59 64
54 54 59 56 58 60 57 56 60 57 55 56 58 60 66 64 56 64 65 61 60 65
56 56 52 60 57 60 63 59 60 59 59 56 54 58 64 63 53 61 62 62 64 62
52 53 55 59 58 60 63 63 55 57 61 59 55 58 60 62 60 58 58 59 61 61
53 53 52 59 63 58 64 64 62 59 59 59 55 53 55 58 60 58 56 58 58 59
57 57 58 62 64 62 64 63 62 61 59 58 52 42 55 54 55 60 59 57 58 58
63 65 65 67 69 69 67 66 65 61 60 60 46 60 74 62 51 56 60 61 60 60
66 69 70 68 72 72 72 67 69 64 61 65 63 75 80 81 50 50 56 61 59 52
67 69 71 72 73 75 69 70 69 67 68 68 62 82 85 86 61 59 59 58 58 62
65 68 69 72 74 70 68 68 67 65 70 72 70 88 90 88 61 59 66 60 60 61
66 69 70 72 75 72 68 65 55 60 64 71 68 90 94 88 54 56 50 63 69 81
66 71 70 75 73 73 70 64 70 64 64 67 69 70 96 99 66 48 45 44 41 42

GFSNIL_sfc_rhum_051.txt.gz
RH
67 44 41 49 39 37 32 33 59 58 55 58 59 57 62 56 53 60 55 60 65 41
68 61 45 54 57 43 49 33 44 52 57 55 54 59 64 50 62 63 62 61 62 55
64 67 59 58 62 57 50 53 45 50 51 55 57 58 67 56 60 63 52 47 64 64
56 57 62 58 59 61 57 57 59 56 56 56 56 60 68 67 56 62 65 61 57 64
57 56 55 60 59 62 65 60 59 62 61 59 56 61 65 63 52 57 60 60 64 58
53 55 54 60 59 62 65 66 55 61 65 62 58 61 62 64 62 57 58 58 62 61
54 54 52 56 63 60 65 67 66 64 64 62 59 57 56 59 62 61 56 58 58 59
56 56 57 59 62 63 64 66 67 66 63 62 54 44 57 58 60 64 61 58 57 58
58 61 61 63 65 68 67 68 69 66 65 63 46 60 70 62 55 60 64 65 63 61
60 64 65 64 68 70 72 69 72 69 66 67 64 73 75 75 48 54 60 64 64 56
60 65 66 68 69 73 69 71 71 71 70 68 63 78 82 80 60 57 59 59 61 66
57 64 67 70 72 70 69 70 69 68 72 73 70 84 85 83 59 57 65 61 61 61
59 64 69 71 74 72 70 68 56 63 67 74 71 92 89 84 51 57 52 64 70 80
62 67 70 73 72 72 71 63 71 65 65 68 70 72 92 95 64 49 45 43 39 40

GFSNIL_sfc_rhum_054.txt.gz
RH
75 60 62 67 60 65 62 59 70 73 73 76 76 77 86 79 78 77 79 79 79 78
75 71 60 70 69 62 68 54 69 70 73 74 76 78 84 76 82 79 82 82 80 81
69 72 70 64 73 68 68 67 77 73 72 72 74 75 82 76 80 83 77 74 82 82
68 65 66 67 64 72 68 73 71 71 72 73 73 75 80 80 76 79 81 79 78 82
68 67 64 64 68 68 74 69 76 74 75 73 72 75 77 77 66 75 77 77 78 76
64 66 67 67 64 69 70 74 65 74 76 75 72 74 75 77 75 74 75 75 78 78
64 63 61 67 68 68 72 73 72 72 74 73 72 70 70 73 75 74 71 74 73 75
65 64 66 67 70 67 69 71 73 74 73 73 68 58 70 71 73 76 75 73 73 72
66 69 69 69 71 73 71 73 74 75 74 74 59 68 75 72 67 74 76 76 75 75
67 70 71 70 71 74 75 73 77 76 75 76 73 74 76 78 62 68 73 78 76 70
65 68 71 72 73 73 72 75 76 77 78 77 73 81 81 78 68 69 72 72 73 76
60 67 70 73 73 71 72 75 74 74 78 80 78 87 83 84 71 66 72 69 71 75
60 66 70 72 74 72 73 72 67 70 74 79 78 91 88 84 63 69 66 74 76 83
63 65 70 75 74 74 74 72 76 73 72 75 78 78 92 90 71 63 64 63 63 64

GFSNIL_sfc_rhum_057.txt.gz
RH
86 68 82 82 78 65 67 68 84 81 85 83 85 86 90 86 89 90 86 84 89 86
91 68 79 76 77 70 72 67 80 79 79 85 86 88 92 88 91 90 91 88 85 90
71 83 77 75 78 73 66 70 81 82 77 85 86 83 94 86 88 88 87 87 88 89
64 76 84 74 70 80 71 86 80 75 85 86 86 88 89 86 89 89 90 86 87 86
67 68 70 82 75 66 80 80 86 78 77 81 84 86 87 88 78 84 90 87 87 83
70 67 68 62 83 71 78 72 80 80 78 79 79 84 88 87 87 85 86 84 88 86
68 69 62 62 60 86 65 90 84 88 79 84 78 83 83 86 88 89 86 87 85 86
67 64 67 63 66 56 78 63 76 85 91 81 81 72 84 86 82 84 89 86 83 85
67 67 67 69 73 68 63 77 69 71 79 89 70 79 83 79 87 84 83 84 88 86
66 70 69 69 69 77 67 64 82 78 78 79 79 84 83 83 67 74 86 80 81 82
67 70 72 70 70 70 72 68 67 75 79 79 76 88 85 83 70 70 71 84 83 79
64 68 72 71 72 67 71 73 70 72 78 81 78 92 89 83 76 69 73 76 77 78
61 67 69 71 67 70 65 66 72 70 73 82 78 92 92 87 68 73 70 74 85 90
59 63 66 68 67 66 69 67 69 73 70 76 82 78 96 93 70 66 71 67 68 72

GFSNIL_sfc_rhum_060.txt.gz
RH
78 75 86 86 73 70 71 75 86 82 89 91 88 88 92 93 91 92 88 85 91 90
90 80 82 85 87 81 72 75 86 80 86 87 91 90 92 91 92 92 93 91 88 92
74 88 78 81 81 83 80 78 87 84 82 88 90 92 94 90 92 94 92 93 93 92
64 76 92 78 76 79 79 79 80 82 80 83 90 90 96 93 89 93 91 90 90 91
65 68 79 87 71 74 81 89 88 86 80 80 85 88 92 94 86 94 92 90 93 91
67 66 66 71 91 76 70 85 93 87 84 82 83 88 91 89 91 91 89 89 92 90
72 66 62 63 69 93 74 66 86 89 83 80 80 81 84 89 93 92 90 89 91 90
69 71 67 61 65 70 87 70 72 82 85 81 78 73 78 82 89 94 94 92 90 91
68 72 74 71 64 69 66 79 76 91 82 83 74 79 88 83 84 91 93 91 94 91
74 74 74 74 72 68 67 59 74 71 88 87 80 86 88 88 77 88 90 88 84 89
74 76 75 73 75 72 71 65 59 74 70 76 82 90 90 88 77 78 82 86 87 87
71 76 76 76 74 73 75 75 64 67 82 78 74 92 92 92 82 77 77 78 80 82
72 70 73 74 72 71 68 71 72 67 65 80 80 92 95 94 77 81 78 75 78 92
70 65 68 70 71 70 71 68 73 74 70 72 79 76 96 97 81 75 76 74 72 75

GFSNIL_sfc_rhum_063.txt.gz
RH
80 77 82 88 86 84 80 85 86 92 92 91 90 92 93 96 95 93 90 90 93 91
81 80 80 85 90 86 84 78 91 90 91 91 92 91 93 96 94 94 94 92 90 93
84 84 84 83 90 92 86 83 90 91 92 92 92 93 94 95 93 94 96 96 94 92
74 92 92 85 81 85 90 86 86 92 91 92 92 94 96 95 92 95 94 92 94 93
66 74 89 90 84 81 81 84 92 87 92 89 90 94 95 95 90 93 94 93 93 93
65 67 69 80 93 84 82 82 90 93 95 91 86 93 92 93 95 94 93 92 93 91
69 65 64 64 78 90 80 80 84 96 94 92 87 85 88 91 95 95 93 92 92 91
70 67 64 64 66 81 90 76 77 81 95 91 88 83 91 92 94 95 95 95 93 92
70 73 71 69 67 67 79 84 85 80 76 92 80 84 88 84 86 92 92 92 95 94
79 75 78 74 71 68 68 69 76 80 79 78 84 88 88 88 73 81 89 90 89 92
73 77 79 80 78 71 67 69 68 68 75 83 78 89 90 89 81 77 82 88 91 91
73 78 77 81 80 77 71 71 70 64 65 72 75 95 93 92 82 80 81 83 89 91
83 76 81 77 77 74 76 73 73 71 64 70 69 86 97 96 80 84 82 80 87 93
80 89 83 90 92 84 80 83 79 80 73 68 77 76 94 97 81 74 74 80 76 78